"Pseudo-MPEC" for C8AX3A2

Created 2022 Nov 25 13:22:10 UT using Find_Orb

Click here for an explanation of pseudo-MPECs

 
 Astrometry: 
     C8AX3A2*1C2022 11 01.18396400 51 57.740+46 04 52.32   ~BEFq 21.45GVNEOCPG96
     C8AX3A2 1C2022 11 01.18920000 51 57.244+46 04 49.30   ~BEFq 21.90GVNEOCPG96
     C8AX3A2 1C2022 11 01.19444100 51 56.801+46 04 46.52   ~BEFq 21.61GVNEOCPG96
     C8AX3A2 1C2022 11 01.19968800 51 56.354+46 04 43.54   ~BEFq 21.15GVNEOCPG96
     C8AX3A2 KC2022 11 01.26511500 51 50.960+46 04 06.70   ~B17M       VNEOCPI52
     C8AX3A2 KC2022 11 01.27108200 51 50.510+46 04 03.50   ~B17M 21.55GVNEOCPI52
     C8AX3A2 KC2022 11 01.27705100 51 50.030+46 04 00.00   ~B17M 21.37GVNEOCPI52
     C8AX3A2 KC2022 11 01.28302100 51 49.530+46 03 56.80   ~B17M 21.54GVNEOCPI52
     C8AX3A2 KC2022 11 02cry,tB+CJAstrometryKredacted;F:Pjclick`SNhere]-a5FZ;H21
     C8AX3A2 KC2022 11 024D3xnvpH(jj3gn_g.9=SSJ[forjexplanationWC%#Wvrk@,Ci(mH21
     C8AX3A2 KC2022 11 027e7[x$O7l7*cD^4(k#.oZ*gJMI9V=*ATes3neY`oB*-0063xKn(8H21
     C8AX3A2 KC2022 11 02.26858500 50 34.300+45 54 34.40   ~B27M       VNEOCPI52
     C8AX3A2 KC2022 11 02.27319100 50 33.900+45 54 31.20   ~B27M       VNEOCPI52
     C8AX3A2 KC2022 11 02.27750300 50 33.570+45 54 28.40   ~B27M       VNEOCPI52

Station data:
(G96) Mt. Lemmon Survey  (N32.442751 W110.788720)  US/Arizona.  Observers T.
   A. Pruyne, B. M. Africano, E. J. Christensen, G. A. Farneth, D. C. Fuls,
   A. R. Gibbs, A. D. Grauer, H. Gröller, J. A. Johnson, R. A. Kowalski, S.
   M. Larson, G. J. Leonard, D. Rankin, R. L. Seaman, F. C. Shelly, K. W.
   Wierzchoś. 1.5-m reflector + 10K CCD.
(H21) Astronomical Research Observatory, Westfield  (N39.483054 W87.968270)
   US/Illinois.  Observer R. Holmes. Measurers S. Foglia, L. Buzzi, T.
   Linder, R. Holmes. 0.76-m f/3.0 astrograph + CCD0.81-m f/4.0 astrograph +
   CCD0.61-m f/4.5 astrograph + CCD0.40-m f/5.32 astrograph + CCD.
(I52) Steward Observatory, Mt. Lemmon Station  (N32.442544 W110.788920)
   US/Arizona.  Observers T. A. Pruyne, B. M. Africano, E. J. Christensen, G.
   A. Farneth, D. C. Fuls, A. R. Gibbs, A. D. Grauer, H. Gröller, J. A.
   Johnson, R. A. Kowalski, S. M. Larson, G. J. Leonard, D. Rankin, R. L.
   Seaman, F. C. Shelly, K. W. Wierzchoś. 1.0-m reflector + CCD.

Orbital elements:  C8AX3A2
   Perihelion 2022 Apr 28.05817 +/- 239 TT =  1:23:46 (JD 2459697.55817)
Epoch 2022 Nov  2.0 TT = JDT 2459885.5   Earth MOID: 0.5551   AutoNEOCP
M  71.36876325 +/- 70               (J2000 ecliptic)
n   0.37973857 +/- 0.0753           Peri.  343.96685 +/- 60
a   1.88862717 +/- 0.25             Node   321.99651 +/- 19
e   0.1717896 +/- 0.144             Incl.   18.63709 +/- 2.6
P   2.60/948.00d           H 19.6   G  0.15   U 11.0  SR
q 1.56418061 +/- 0.147    Q 2.21307373 +/- 0.845
From 14 observations 2022 Nov. 1-2 (26.2 hr); mean residual 0".39
Residuals in arcseconds: 
221101 G96  .41+  .20+    221101 I52  .19+  .15-    221102 H21  .03-  .39+    
221101 G96  .25-  .04+    221101 I52  .32+  .26-    221102 I52  .08-  .04-    
221101 G96  .34-  .13+    221101 I52  .24+  .06-    221102 I52  .44-  .51-    
221101 G96  .47-  .03+    221102 H21  .97+  .78+    221102 I52  .31-  .76-    
221101 I52  .25-  .33-    221102 H21  .05+  .53+    

Ephemerides (geocentric):
Date (UTC) HH   RA             Dec           delta  r     elong  mag " sig PA
---- --------  ------------   ------------  ------ ------ -----  --- --------
2022 11 25 13  00 36 57.191   +41 10 46.10  1.0801 1.8895 132.1 22.2 2187 122
2022 11 25 14  00 36 57.375   +41 10 14.03  1.0804 1.8896 132.0 22.2 2194 122
2022 11 25 15  00 36 57.564   +41 09 41.97  1.0807 1.8897 132.0 22.2 2200 122
2022 11 25 16  00 36 57.759   +41 09 09.91  1.0810 1.8897 132.0 22.2 2207 122
2022 11 25 17  00 36 57.959   +41 08 37.87  1.0814 1.8898 132.0 22.2 2214 122
2022 11 25 18  00 36 58.165   +41 08 05.83  1.0817 1.8899 131.9 22.2 2221 122
2022 11 25 19  00 36 58.377   +41 07 33.80  1.0820 1.8900 131.9 22.2 2228 122
2022 11 25 20  00 36 58.593   +41 07 01.78  1.0823 1.8901 131.9 22.2 2235 122
2022 11 25 21  00 36 58.816   +41 06 29.77  1.0826 1.8902 131.9 22.2 2241 122
2022 11 25 22  00 36 59.044   +41 05 57.77  1.0829 1.8903 131.8 22.2 2248 122
2022 11 25 23  00 36 59.277   +41 05 25.78  1.0832 1.8904 131.8 22.2 2255 121
2022 11 26 00  00 36 59.516   +41 04 53.80  1.0835 1.8905 131.8 22.2 2262 121
2022 11 26 01  00 36 59.760   +41 04 21.82  1.0839 1.8905 131.8 22.2 2269 121
2022 11 26 02  00 37 00.009   +41 03 49.86  1.0842 1.8906 131.7 22.2 2276 121
2022 11 26 03  00 37 00.264   +41 03 17.90  1.0845 1.8907 131.7 22.2 2283 121
2022 11 26 04  00 37 00.525   +41 02 45.96  1.0848 1.8908 131.7 22.2 2290 121
2022 11 26 05  00 37 00.791   +41 02 14.02  1.0851 1.8909 131.7 22.2 2296 121
2022 11 26 06  00 37 01.062   +41 01 42.09  1.0854 1.8910 131.6 22.2 2303 121
2022 11 26 07  00 37 01.339   +41 01 10.18  1.0857 1.8911 131.6 22.2 2310 121
2022 11 26 08  00 37 01.622   +41 00 38.27  1.0861 1.8912 131.6 22.2 2317 121
2022 11 26 09  00 37 01.909   +41 00 06.37  1.0864 1.8913 131.6 22.2 2324 121
2022 11 26 10  00 37 02.202   +40 59 34.48  1.0867 1.8914 131.5 22.2 2331 120
2022 11 26 11  00 37 02.501   +40 59 02.61  1.0870 1.8914 131.5 22.2 2338 120
2022 11 26 12  00 37 02.805   +40 58 30.74  1.0873 1.8915 131.5 22.2 2345 120
2022 11 26 13  00 37 03.114   +40 57 58.88  1.0876 1.8916 131.4 22.2 2352 120
2022 11 26 14  00 37 03.429   +40 57 27.03  1.0880 1.8917 131.4 22.2 2359 120
2022 11 26 15  00 37 03.749   +40 56 55.19  1.0883 1.8918 131.4 22.2 2366 120
2022 11 26 16  00 37 04.075   +40 56 23.37  1.0886 1.8919 131.4 22.2 2373 120
2022 11 26 17  00 37 04.406   +40 55 51.55  1.0889 1.8920 131.3 22.2 2380 120
2022 11 26 18  00 37 04.742   +40 55 19.74  1.0892 1.8921 131.3 22.2 2387 120
2022 11 26 19  00 37 05.084   +40 54 47.94  1.0895 1.8922 131.3 22.2 2394 120
2022 11 26 20  00 37 05.431   +40 54 16.16  1.0899 1.8922 131.3 22.2 2401 120
2022 11 26 21  00 37 05.784   +40 53 44.38  1.0902 1.8923 131.2 22.2 2408 119
2022 11 26 22  00 37 06.142   +40 53 12.61  1.0905 1.8924 131.2 22.2 2415 119
2022 11 26 23  00 37 06.505   +40 52 40.86  1.0908 1.8925 131.2 22.2 2422 119
2022 11 27 00  00 37 06.874   +40 52 09.11  1.0911 1.8926 131.2 22.2 2429 119
2022 11 27 01  00 37 07.248   +40 51 37.38  1.0915 1.8927 131.1 22.2 2436 119
2022 11 27 02  00 37 07.627   +40 51 05.66  1.0918 1.8928 131.1 22.2 2443 119
2022 11 27 03  00 37 08.012   +40 50 33.94  1.0921 1.8929 131.1 22.2 2450 119
2022 11 27 04  00 37 08.402   +40 50 02.24  1.0924 1.8930 131.0 22.2 2457 119
2022 11 27 05  00 37 08.797   +40 49 30.55  1.0927 1.8931 131.0 22.2 2464 119
2022 11 27 06  00 37 09.198   +40 48 58.87  1.0931 1.8931 131.0 22.2 2471 119
2022 11 27 07  00 37 09.604   +40 48 27.20  1.0934 1.8932 131.0 22.3 2479 119
2022 11 27 08  00 37 10.016   +40 47 55.54  1.0937 1.8933 130.9 22.3 2486 118
2022 11 27 09  00 37 10.433   +40 47 23.90  1.0940 1.8934 130.9 22.3 2493 118
2022 11 27 10  00 37 10.855   +40 46 52.26  1.0943 1.8935 130.9 22.3 2500 118
2022 11 27 11  00 37 11.282   +40 46 20.63  1.0947 1.8936 130.9 22.3 2507 118
2022 11 27 12  00 37 11.715   +40 45 49.02  1.0950 1.8937 130.8 22.3 2514 118